West Memphis, AR

11:28 AM CDT on September 29, 2016 (GMT -0500)
West Memphis Municipal

Weather History for KAWM - March, 2013

Change the Weather History Date:

Saturday, March 30, 2013

  Actual Average Record
Temperature  
Mean Temperature 54 °F -  
Max Temperature 57 °F 67 °F 85 °F (1963)
Min Temperature 50 °F 47 °F 23 °F (1964)
Degree Days  
Heating Degree Days 12    
Growing Degree Days 4 (Base 50)    
Moisture  
Dew Point 52 °F    
Average Humidity 94    
Maximum Humidity 100    
Minimum Humidity 88    
Precipitation  
Precipitation 0.40 in - - ()
Sea Level Pressure  
Sea Level Pressure 30.06 in    
Wind  
Wind Speed 5 mph (SE)    
Max Wind Speed 12 mph    
Max Gust Speed -    
Visibility 6 miles    
Events Fog , Rain    
Averages and records for this station are not official NWS values.
T = Trace of Precipitation, MM = Missing Value Source: NWS Daily Summary

Daily Weather History Graph

Daily Weather History Graph

Search for Another Location

Airport or City:

Trip Planner

Search our weather history database for the weather conditions in past years. The results will help you decide how hot, cold, wet, or windy it might be!

Date:

Astronomy

Mar. 30, 2013 Rise Set
Actual Time 6:50 AM CDT 7:20 PM CDT
Civil Twilight 6:24 AM CDT 7:46 PM CDT
Nautical Twilight 5:54 AM CDT 8:16 PM CDT
Astronomical Twilight 5:24 AM CDT 8:47 PM CDT
Moon 11:18 PM CDT (3/30) 8:53 AM CDT (3/30)
Length of Visible Light 13h 21m
Length of Day
12h 30m
Waning Gibbous, 86% of the Moon is Illuminated
Mar 30
Waning Gibbous
Apr 2
Last Quarter
Apr 10
New
Apr 18
First Quarter
Apr 25
Full

Hourly Weather History & Observations

Time (CDT) Temp. Dew Point Humidity Pressure Visibility Wind Dir Wind Speed Gust Speed Precip Events Conditions
12:20 AM 51.8 °F 48.2 °F 88% 30.18 in 10.0 mi East 4.6 mph - N/A   Mostly Cloudy
12:53 AM 52.0 °F 50.0 °F 93% 30.18 in 5.0 mi East 5.8 mph - N/A   Mostly Cloudy
1:10 AM 51.8 °F 50.0 °F 94% 30.17 in 4.0 mi East 5.8 mph - N/A   Mostly Cloudy
1:40 AM 51.8 °F 50.0 °F 94% 30.17 in 7.0 mi East 5.8 mph - N/A   Mostly Cloudy
1:53 AM 52.0 °F 50.0 °F 93% 30.17 in 6.0 mi East 3.5 mph - N/A   Overcast
2:53 AM 52.0 °F 50.0 °F 93% 30.15 in 7.0 mi ESE 4.6 mph - N/A   Overcast
3:11 AM 51.8 °F 50.0 °F 94% 30.14 in 8.0 mi ESE 4.6 mph - N/A   Overcast
3:50 AM 51.8 °F 48.2 °F 88% 30.13 in 8.0 mi Calm Calm - N/A   Mostly Cloudy
3:53 AM 51.1 °F 48.9 °F 92% 30.13 in 8.0 mi Calm Calm - N/A   Mostly Cloudy
4:53 AM 51.1 °F 50.0 °F 96% 30.11 in 8.0 mi East 4.6 mph - N/A   Overcast
5:53 AM 52.0 °F 50.0 °F 93% 30.12 in 8.0 mi East 5.8 mph - N/A   Overcast
6:53 AM 50.0 °F 48.9 °F 96% 30.12 in 4.0 mi NE 5.8 mph - N/A   Overcast
7:12 AM 51.8 °F 48.2 °F 88% 30.12 in 2.5 mi Calm Calm - N/A   Overcast
7:25 AM 51.8 °F 48.2 °F 88% 30.12 in 3.0 mi East 3.5 mph - N/A   Overcast
7:53 AM 51.1 °F 50.0 °F 96% 30.12 in 4.0 mi East 3.5 mph - N/A   Overcast
8:46 AM 51.8 °F 50.0 °F 94% 30.12 in 0.2 mi ESE 5.8 mph - N/A Fog Fog
8:53 AM 52.0 °F 50.0 °F 93% 30.12 in 0.2 mi ESE 5.8 mph - N/A Fog Fog
8:56 AM 51.8 °F 50.0 °F 94% 30.12 in 1.2 mi ESE 4.6 mph - N/A   Overcast
8:58 AM 51.8 °F 50.0 °F 94% 30.12 in 5.0 mi ESE 5.8 mph - N/A   Overcast
9:53 AM 53.1 °F 50.0 °F 89% 30.11 in 7.0 mi ESE 5.8 mph - 0.00 in Rain Light Rain
10:53 AM 53.1 °F 51.1 °F 93% 30.08 in 4.0 mi East 8.1 mph - 0.06 in Rain Light Rain
11:53 AM 53.1 °F 52.0 °F 96% 30.11 in 3.0 mi South 3.5 mph - 0.07 in Rain Light Rain
12:00 PM 53.6 °F 51.8 °F 94% 30.11 in 2.5 mi Calm Calm - 0.01 in Rain Light Rain
12:18 PM 53.6 °F 51.8 °F 94% 30.09 in 3.0 mi ESE 3.5 mph - 0.05 in Rain Light Rain
12:37 PM 53.6 °F 53.6 °F 100% 30.08 in 2.5 mi ESE 3.5 mph - 0.09 in Rain Light Rain
12:53 PM 54.0 °F 53.1 °F 97% 30.07 in 3.0 mi SE 5.8 mph - 0.12 in Rain Light Rain
1:20 PM 55.4 °F 53.6 °F 94% 30.05 in 4.0 mi SE 8.1 mph - 0.02 in Rain Light Rain
1:38 PM 55.4 °F 53.6 °F 94% 30.05 in 7.0 mi SE 6.9 mph - 0.03 in Rain Light Rain
1:53 PM 55.0 °F 54.0 °F 96% 30.05 in 6.0 mi SSE 10.4 mph - 0.03 in Rain Light Rain
2:53 PM 55.9 °F 55.0 °F 97% 30.00 in 7.0 mi SE 8.1 mph - 0.09 in Rain Light Rain
3:53 PM 57.0 °F 55.0 °F 93% 29.98 in 10.0 mi South 11.5 mph - 0.01 in Rain Light Rain
4:38 PM 55.4 °F 55.4 °F 100% 29.97 in 9.0 mi South 5.8 mph - 0.02 in Rain Light Rain
4:53 PM 57.0 °F 55.0 °F 93% 29.96 in 10.0 mi SE 4.6 mph - 0.02 in   Overcast
5:28 PM 57.2 °F 55.4 °F 94% 29.95 in 10.0 mi SSE 8.1 mph - N/A   Overcast
5:53 PM 57.9 °F 55.9 °F 93% 29.94 in 10.0 mi SSE 9.2 mph - N/A   Overcast
6:53 PM 57.9 °F 55.9 °F 93% 29.94 in 10.0 mi South 8.1 mph - N/A   Overcast
7:13 PM 57.2 °F 55.4 °F 94% 29.93 in 10.0 mi South 6.9 mph - N/A   Overcast
7:53 PM 55.9 °F 55.0 °F 97% 29.93 in 8.0 mi South 5.8 mph - N/A   Clear
8:53 PM 57.0 °F 55.9 °F 96% 29.96 in 10.0 mi Calm Calm - N/A   Overcast
9:01 PM 57.2 °F 55.4 °F 94% 29.96 in 10.0 mi Calm Calm - N/A   Overcast
9:23 PM 57.2 °F 55.4 °F 94% 29.96 in 9.0 mi Calm Calm - N/A   Overcast
9:48 PM 57.2 °F 55.4 °F 94% 29.96 in 10.0 mi Calm Calm - N/A   Overcast
9:53 PM 57.0 °F 55.9 °F 96% 29.96 in 10.0 mi Calm Calm - N/A   Overcast
10:29 PM 57.2 °F 55.4 °F 94% 29.97 in 10.0 mi SW 3.5 mph - N/A   Overcast
10:53 PM 57.0 °F 55.9 °F 96% 29.96 in 9.0 mi SSW 4.6 mph - N/A   Overcast
11:51 PM 55.4 °F 55.4 °F 100% 29.96 in 7.0 mi SSW 4.6 mph - N/A   Scattered Clouds
11:53 PM 55.0 °F 55.0 °F 100% 29.96 in 6.0 mi SSW 4.6 mph - N/A   Scattered Clouds